Station PCLF1 - 8729840 - Pensacola, FL Image indicating link to RSS feed of recent meteorological observations for station PCLF1


Conditions at PCLF1 as of
(4:48 pm CDT)
2148 GMT on 04/19/2024:
     

Click on the graph icon in the table below to see a time series plot of the last five days of that observation.

5-day plot - Wind Direction Wind Direction (WDIR):SSW ( 210 deg true )
5-day plot - Wind Speed Wind Speed (WSPD): 11.1 kts
5-day plot - Wind Gust Wind Gust (GST): 14.0 kts
5-day plot - Atmospheric Pressure Atmospheric Pressure (PRES):30.03 in
5-day plot - Air Temperature Air Temperature (ATMP): 77.5 °F
5-day plot - Wind Speed at 10 Meters Wind Speed at 10 meters (WSPD10M): 11.7 kts
5-day plot - Wind Speed at 20 Meters Wind Speed at 20 meters (WSPD20M): 11.7 kts
5-day plot -  Wind Speed, Wind Gust and Atmospheric Pressure Combined plot of Wind Speed, Gust, and Air Pressure
NOS Water Level Observation Network Water Level
Previous observations
TIME
(CDT)
5-day plot - Wind Direction
WDIR
 
5-day plot - Wind Speed
WSPD
kts
5-day plot - Wind Gust
GST
kts
5-day plot - Wave Height
WVHT
ft
5-day plot - Dominant Wave Period
DPD
sec
5-day plot - Average Wave Period
APD
sec
5-day plot - Mean Wave Direction
MWD
 
5-day plot - Atmospheric Pressure
PRES
in
5-day plot - Pressure Tendency
PTDY
in
5-day plot - Air Temperature
ATMP
°F
5-day plot - Water Temperature
WTMP
°F
5-day plot - Dew Point
DEWP
°F
5-day plot - Salinity
SAL
psu
5-day plot - Visibility
VIS
nmi
5-day plot - Tide (above MLLW)
TIDE
ft
2024-04-19 04:42 pm SW 11.1 13.0----30.03- 77.4-----
2024-04-19 04:36 pmSSW 11.1 15.0----30.03- 77.5-----
2024-04-19 04:30 pmSSW 12.0 13.0----30.03- 77.5-----
2024-04-19 04:24 pmSSW 12.0 13.0----30.03- 77.5-----
2024-04-19 04:18 pmSSW 11.1 13.0----30.03- 77.9-----
2024-04-19 04:12 pmSSW 9.9 12.0----30.03- 77.9-----
2024-04-19 04:06 pmSSW 11.1 13.0----30.03- 77.5-----
2024-04-19 04:00 pmSSW 11.1 14.0----30.03-0.05 77.5-----
2024-04-19 03:54 pmSSW 11.1 14.0----30.03- 77.7-----
2024-04-19 03:48 pmSSW 12.0 13.0----30.03- 77.9-----
2024-04-19 03:42 pmSSW 11.1 14.0----30.03- 77.7-----
2024-04-19 03:36 pmSSW 11.1 13.0----30.03- 77.9-----
2024-04-19 03:30 pmSSW 11.1 14.0----30.04- 77.9-----
2024-04-19 03:24 pmSSW 9.9 14.0----30.04- 77.9-----
2024-04-19 03:18 pmSSW 11.1 15.0----30.04- 77.7-----
2024-04-19 03:12 pmSSW 12.0 15.0----30.04- 77.9-----
2024-04-19 03:06 pmSSW 9.9 14.0----30.05- 77.9-----
2024-04-19 03:00 pmSSW 11.1 14.0----30.05-0.04 78.1-----
2024-04-19 02:54 pmSSW 9.9 14.0----30.05- 77.9-----
2024-04-19 02:48 pmSSW 9.9 14.0----30.05- 78.4-----
2024-04-19 02:42 pmSSW 9.9 13.0----30.05- 78.3-----
2024-04-19 02:36 pmSSW 9.9 13.0----30.05- 78.3-----
2024-04-19 02:30 pmSSW 11.1 14.0----30.06- 78.3-----
2024-04-19 02:24 pmSSW 11.1 14.0----30.06- 78.3-----
2024-04-19 02:18 pmSSW 8.9 12.0----30.06- 78.4-----
2024-04-19 02:12 pmSSW 9.9 13.0----30.06- 78.3-----
2024-04-19 02:06 pmSSW 11.1 12.0----30.06- 78.4-----
2024-04-19 02:00 pmSSW 8.9 12.0----30.06-0.04 78.4-----
2024-04-19 01:54 pm S 9.9 12.0----30.06- 78.6-----
2024-04-19 01:48 pm S 8.9 12.0----30.06- 79.0-----
2024-04-19 01:42 pm S 8.9 11.1----30.06- 78.4-----
2024-04-19 01:36 pm S 8.9 12.0----30.06- 78.6-----
2024-04-19 01:30 pm S 9.9 12.0----30.06- 78.4-----
2024-04-19 01:24 pm S 9.9 11.1----30.06- 78.3-----
2024-04-19 01:18 pm S 9.9 11.1----30.07- 78.4-----
2024-04-19 01:12 pm S 8.9 12.0----30.07- 78.4-----
2024-04-19 01:06 pm S 9.9 12.0----30.07- 77.9-----
2024-04-19 01:00 pm S 9.9 12.0----30.08-0.03 77.7-----
2024-04-19 12:54 pm S 9.9 12.0----30.08- 78.1-----
2024-04-19 12:48 pm S 11.1 12.0----30.08- 77.7-----
2024-04-19 12:42 pm S 9.9 12.0----30.08- 77.5-----
2024-04-19 12:36 pm S 9.9 11.1----30.08- 77.7-----
2024-04-19 12:30 pm S 9.9 11.1----30.08- 77.4-----
2024-04-19 12:24 pm S 8.9 11.1----30.08- 77.5-----
2024-04-19 12:18 pm S 8.9 9.9----30.08- 77.5-----
2024-04-19 12:12 pm S 8.9 9.9----30.09- 77.5-----
2024-04-19 12:06 pm S 8.0 9.9----30.09- 78.3-----
2024-04-19 12:00 pm S 8.0 8.9----30.09-0.01 77.7-----
2024-04-19 11:54 am S 8.0 8.9----30.09- 77.7-----
2024-04-19 11:48 amSSW 8.0 9.9----30.09- 77.5-----
2024-04-19 11:42 am S 7.0 8.9----30.09- 78.6-----
2024-04-19 11:36 am S 7.0 8.0----30.09- 78.3-----
2024-04-19 11:30 am S 7.0 8.0----30.09- 78.6-----
2024-04-19 11:24 am S 6.0 8.0----30.09- 78.8-----
2024-04-19 11:18 am S 7.0 8.0----30.09- 78.3-----
2024-04-19 11:12 am S 6.0 7.0----30.10- 78.4-----
2024-04-19 11:06 am S 5.1 6.0----30.10- 77.7-----
2024-04-19 11:00 am S 5.1 6.0----30.10+0.00 77.5-----
2024-04-19 10:54 am S 5.1 6.0----30.09- 77.0-----
2024-04-19 10:48 am S 5.1 6.0----30.09- 76.8-----
2024-04-19 10:42 am S 5.1 6.0----30.09- 76.6-----
2024-04-19 10:36 am S 5.1 6.0----30.09- 75.9-----
2024-04-19 10:30 am S 5.1 6.0----30.09- 75.9-----
2024-04-19 10:24 am S 5.1 6.0----30.10- 76.3-----
2024-04-19 10:18 am S 4.1 5.1----30.10- 76.3-----
2024-04-19 10:12 am S 4.1 5.1----30.10- 76.5-----
2024-04-19 10:06 am S 2.9 5.1----30.10- 76.3-----
2024-04-19 10:00 am S 4.1 5.1----30.10+0.00 76.1-----
2024-04-19 09:54 am S 2.9 4.1----30.10- 75.9-----
2024-04-19 09:48 am S 2.9 5.1----30.10- 75.7-----
2024-04-19 09:42 am S 2.9 4.1----30.10- 75.6-----
2024-04-19 09:36 am S 2.9 4.1----30.10- 75.0-----
2024-04-19 09:30 am S 2.9 4.1----30.10- 74.1-----
2024-04-19 09:24 am S 2.9 4.1----30.10- 75.0-----
2024-04-19 09:18 amSSE 1.0 4.1----30.10- 75.0-----
2024-04-19 09:12 am S 2.9 4.1----30.10- 74.7-----
2024-04-19 09:06 am S 2.9 2.9----30.10- 74.7-----
2024-04-19 09:00 am- 0.0 1.0----30.10+0.03 75.0-----
2024-04-19 08:54 am- 0.0 5.1----30.10- 74.8-----
2024-04-19 08:48 amNNW 1.0 4.1----30.10- 74.7-----
2024-04-19 08:42 amNNW 1.9 4.1----30.10- 74.5-----
2024-04-19 08:36 am N 2.9 4.1----30.10- 74.1-----
2024-04-19 08:30 am- 0.0 2.9----30.10- 74.3-----
2024-04-19 08:24 am- 0.0 1.9----30.11- 73.9-----
2024-04-19 08:18 am N 1.0 4.1----30.11- 73.6-----
2024-04-19 08:12 am- 0.0 1.9----30.10- 73.6-----
2024-04-19 08:06 am NE 1.9 2.9----30.10- 73.4-----
2024-04-19 08:00 am E 1.9 2.9----30.10+0.06 73.4-----
2024-04-19 07:54 amENE 1.0 4.1----30.10- 72.7-----
2024-04-19 07:48 am- 0.0 2.9----30.10- 72.9-----
2024-04-19 07:42 am- 0.0 2.9----30.10- 72.5-----
2024-04-19 07:36 am N 1.9 4.1----30.10- 72.7-----
2024-04-19 07:30 am N 2.9 4.1----30.11- 72.5-----
2024-04-19 07:24 am N 1.9 4.1----30.11- 72.1-----
2024-04-19 07:18 am N 2.9 5.1----30.11- 72.0-----
2024-04-19 07:12 amNNW 1.9 4.1----30.10- 72.0-----
2024-04-19 07:06 am N 1.9 2.9----30.10- 71.6-----
2024-04-19 07:00 amNNW 1.9 4.1----30.10+0.10 71.4-----
2024-04-19 06:54 amNNW 1.9 4.1----30.09- 71.4-----
2024-04-19 06:48 amNNW 1.9 4.1----30.09- 71.2-----
2024-04-19 06:42 am N 2.9 4.1----30.09- 71.2-----
2024-04-19 06:36 am N 1.9 4.1----30.09- 71.2-----
2024-04-19 06:30 amNNW 4.1 6.0----30.09- 71.2-----
2024-04-19 06:24 amNNW 4.1 6.0----30.08- 71.2-----
2024-04-19 06:18 amNNW 4.1 4.1----30.07- 70.9-----
2024-04-19 06:12 am NW 1.9 4.1----30.07- 70.9-----
2024-04-19 06:06 am NW 2.9 4.1----30.07- 70.9-----
2024-04-19 06:00 amWNW 1.0 1.9----30.07+0.06 71.1-----
2024-04-19 05:54 amWNW 1.9 2.9----30.06- 71.1-----
2024-04-19 05:48 amWNW 1.9 2.9----30.05- 71.2-----
2024-04-19 05:42 am- 0.0 2.9----30.05- 71.4-----
2024-04-19 05:36 am W 1.9 5.1----30.05- 71.4-----
2024-04-19 05:30 am W 2.9 4.1----30.05- 71.4-----
2024-04-19 05:24 amWSW 1.9 4.1----30.04- 71.6-----
2024-04-19 05:18 am W 2.9 5.1----30.04- 71.6-----
2024-04-19 05:12 am W 2.9 5.1----30.04- 71.6-----
2024-04-19 05:06 am W 4.1 6.0----30.04- 71.6-----
2024-04-19 05:00 amWNW 4.1 6.0----30.03+0.01 71.8-----
2024-04-19 04:54 am W 2.9 5.1----30.03- 72.0-----
2024-04-19 04:48 am W 2.9 5.1----30.03- 72.1-----
2024-04-19 04:42 am W 2.9 6.0----30.03- 72.3-----
2024-04-19 04:36 am W 1.9 7.0----30.02- 72.5-----
2024-04-19 04:30 am W 4.1 7.0----30.02- 72.7-----
2024-04-19 04:24 amWSW 5.1 8.0----30.02- 72.9-----
2024-04-19 04:18 am SW 4.1 8.0----30.01- 73.0-----
2024-04-19 04:12 am SW 5.1 8.9----30.01- 73.0-----
2024-04-19 04:06 am SW 7.0 11.1----30.01- 73.2-----
2024-04-19 04:00 amSSW 8.0 9.9----30.00-0.03 73.2-----
2024-04-19 03:54 am SW 8.0 9.9----30.00- 73.0-----
2024-04-19 03:48 am SW 7.0 9.9----30.00- 73.2-----
2024-04-19 03:42 am SW 7.0 8.9----30.01- 73.4-----
2024-04-19 03:36 am SW 7.0 9.9----30.01- 73.4-----
2024-04-19 03:30 am SW 8.0 8.9----30.01- 73.4-----
2024-04-19 03:24 am SW 7.0 11.1----30.01- 73.4-----
2024-04-19 03:18 am SW 8.9 12.0----30.01- 73.4-----
2024-04-19 03:12 am SW 7.0 9.9----30.01- 73.4-----
2024-04-19 03:06 am SW 7.0 11.1----30.01- 73.4-----
2024-04-19 03:00 am SW 8.0 11.1----30.01-0.03 73.2-----
2024-04-19 02:54 am SW 8.0 9.9----30.01- 73.4-----
2024-04-19 02:48 amSSW 8.0 11.1----30.01- 73.2-----
2024-04-19 02:42 am SW 6.0 12.0----30.01- 73.4-----
2024-04-19 02:36 am SW 8.9 12.0----30.01- 73.4-----
2024-04-19 02:30 am SW 8.0 11.1----30.01- 73.6-----
2024-04-19 02:24 am SW 8.0 11.1----30.01- 73.4-----
2024-04-19 02:18 am SW 8.0 12.0----30.02- 73.6-----
2024-04-19 02:12 am SW 8.0 11.1----30.02- 73.6-----
2024-04-19 02:06 am SW 8.9 11.1----30.02- 73.6-----
2024-04-19 02:00 amSSW 8.0 12.0----30.02-0.04 73.6-----
2024-04-19 01:54 amSSW 7.0 9.9----30.02- 73.6-----
2024-04-19 01:48 amSSW 7.0 9.9----30.02- 73.6-----
2024-04-19 01:42 amSSW 7.0 9.9----30.02- 73.6-----
2024-04-19 01:36 amSSW 8.0 9.9----30.02- 73.4-----
2024-04-19 01:30 amSSW 8.0 9.9----30.02- 73.6-----
2024-04-19 01:24 amSSW 7.0 9.9----30.02- 73.6-----
2024-04-19 01:18 amSSW 8.0 8.9----30.03- 73.4-----
2024-04-19 01:12 amSSW 6.0 7.0----30.03- 73.8-----
2024-04-19 01:06 amSSW 6.0 8.0----30.03- 73.6-----
2024-04-19 01:00 amSSW 7.0 8.0----30.03-0.05 73.6-----
2024-04-19 12:54 amSSW 6.0 8.9----30.03- 73.8-----
2024-04-19 12:48 amSSW 6.0 8.9----30.03- 73.6-----
2024-04-19 12:42 amSSW 7.0 8.9----30.03- 73.8-----
2024-04-19 12:36 amSSW 7.0 8.9----30.03- 73.8-----
2024-04-19 12:30 amSSW 8.9 9.9----30.03- 73.8-----
2024-04-19 12:24 am S 8.9 11.1----30.04- 73.8-----
2024-04-19 12:18 am S 9.9 11.1----30.03- 73.8-----
2024-04-19 12:12 amSSW 8.9 12.0----30.04- 73.8-----
2024-04-19 12:06 am S 9.9 12.0----30.04- 73.9-----
2024-04-19 12:00 amSSW 8.0 11.1----30.04-0.06 73.9-----
2024-04-18 11:54 pmSSW 7.0 9.9----30.05- 74.1-----
2024-04-18 11:48 pmSSW 7.0 9.9----30.05- 73.9-----
2024-04-18 11:42 pmSSW 8.0 9.9----30.05- 73.9-----
2024-04-18 11:36 pmSSW 7.0 11.1----30.06- 73.9-----
2024-04-18 11:30 pmSSW 7.0 11.1----30.06- 73.9-----
2024-04-18 11:24 pmSSW 8.9 11.1----30.06- 74.1-----
2024-04-18 11:18 pmSSW 8.0 11.1----30.06- 74.1-----
2024-04-18 11:12 pmSSW 8.9 11.1----30.06- 73.9-----
2024-04-18 11:06 pmSSW 8.9 9.9----30.06- 73.9-----
2024-04-18 11:00 pm S 7.0 8.9----30.06-0.01 73.9-----
2024-04-18 10:54 pm S 8.0 9.9----30.07- 73.9-----
2024-04-18 10:48 pmSSW 8.0 11.1----30.07- 73.9-----
2024-04-18 10:42 pm S 8.9 11.1----30.07- 73.8-----
2024-04-18 10:36 pm S 8.9 11.1----30.07- 74.1-----
2024-04-18 10:30 pm S 8.9 11.1----30.07- 74.1-----
2024-04-18 10:24 pm S 8.9 11.1----30.08- 74.1-----
2024-04-18 10:18 pmSSW 8.0 9.9----30.08- 74.3-----
2024-04-18 10:12 pm S 8.0 9.9----30.08- 73.9-----
2024-04-18 10:06 pm S 8.0 8.9----30.08- 74.3-----
2024-04-18 10:00 pm S 8.0 8.9----30.09+0.02 74.3-----
2024-04-18 09:54 pmSSW 7.0 8.9----30.09- 74.3-----
2024-04-18 09:48 pmSSW 5.1 6.0----30.09- 74.3-----
2024-04-18 09:42 pmSSW 4.1 6.0----30.09- 74.1-----
2024-04-18 09:36 pmSSW 4.1 7.0----30.10- 74.1-----
2024-04-18 09:30 pmSSW 5.1 7.0----30.10- 74.1-----
2024-04-18 09:24 pmSSW 5.1 6.0----30.10- 74.1-----
2024-04-18 09:18 pmSSW 5.1 7.0----30.10- 74.1-----
2024-04-18 09:12 pmSSW 5.1 7.0----30.10- 74.1-----
2024-04-18 09:06 pm SW 5.1 8.0----30.11- 74.1-----
2024-04-18 09:00 pm SW 5.1 9.9----30.11+0.05 74.3-----
2024-04-18 08:54 pmSSW 7.0 8.9----30.10- 74.1-----
2024-04-18 08:48 pmSSW 6.0 8.0----30.10- 74.1-----
2024-04-18 08:42 pmSSW 6.0 8.0----30.10- 74.1-----
2024-04-18 08:36 pm S 6.0 8.0----30.09- 73.9-----
2024-04-18 08:30 pmSSW 6.0 8.9----30.09- 73.9-----
2024-04-18 08:24 pmSSW 8.0 8.9----30.09- 73.9-----
2024-04-18 08:18 pm S 8.0 8.9----30.08- 73.9-----
2024-04-18 08:12 pmSSW 7.0 8.0----30.08- 73.9-----
2024-04-18 08:06 pmSSW 7.0 8.9----30.08- 74.1-----
2024-04-18 08:00 pm S 4.1 5.1----30.07+0.01 74.1-----
2024-04-18 07:54 pm SE 1.0 4.1----30.05- 73.9-----
2024-04-18 07:48 pmSSE 1.9 2.9----30.05- 73.9-----
2024-04-18 07:42 pmSSE 2.9 6.0----30.05- 73.8-----
2024-04-18 07:36 pm S 6.0 8.0----30.06- 73.6-----
2024-04-18 07:30 pm S 6.0 7.0----30.06- 73.8-----
2024-04-18 07:24 pm S 5.1 8.0----30.06- 73.9-----
2024-04-18 07:18 pm S 7.0 8.9----30.06- 73.9-----
2024-04-18 07:12 pm S 7.0 8.9----30.06- 73.9-----
2024-04-18 07:06 pm S 7.0 8.9----30.07- 73.9-----
2024-04-18 07:00 pm S 7.0 9.9----30.06+0.00 74.1-----
2024-04-18 06:54 pm S 8.0 9.9----30.06- 74.5-----
2024-04-18 06:48 pm S 7.0 9.9----30.07- 74.5-----
2024-04-18 06:42 pm S 8.9 9.9----30.07- 74.7-----
2024-04-18 06:36 pm S 7.0 8.9----30.07- 74.8-----
2024-04-18 06:30 pm S 7.0 8.9----30.07- 75.0-----
2024-04-18 06:24 pm S 8.0 8.9----30.07- 74.7-----
2024-04-18 06:18 pm S 8.0 8.9----30.06- 75.2-----
2024-04-18 06:00 pm S 8.0 9.9----30.06-0.01 75.2-----
2024-04-18 05:54 pm S 8.0 9.9----30.06- 75.2-----
2024-04-18 05:48 pm S 8.0 11.1----30.06- 75.2-----
2024-04-18 05:42 pm S 8.9 9.9----30.06- 75.6-----
2024-04-18 05:36 pm S 8.9 11.1----30.06- 75.9-----
2024-04-18 05:30 pm S 8.0 11.1----30.06- 76.1-----
2024-04-18 05:24 pm S 8.0 11.1----30.06- 76.3-----
2024-04-18 05:18 pm S 8.9 11.1----30.06- 76.5-----
2024-04-18 05:12 pm S 8.9 9.9----30.06- 77.4-----
2024-04-18 05:06 pm S 7.0 9.9----30.06- 77.7-----
2024-04-18 05:00 pm S 8.0 9.9----30.06-0.02------
2024-04-18 04:54 pm S 8.0 9.9----30.06-------